Alamo, North Dakota
Current Conditions -  °F | °C
As of 3:15 PM on Saturday 22 Nov 2014 (Local Time) from KD50 Reporting Station
Broken Clouds Broken Clouds  
Wind Chill: 33°   Ceiling: 7000
Heat Index: 41°   Visibility: 10mi
Dew Point: 32°   Wind: 14mph
Humidity: 70%   Direction: 200°SSW
Pressure: 29.2"   Gusts: 21mph
Location:  48.58°N, 103.47°W
Report Text: KD50 222115Z AUTO 20012G18KT 10SM BKN070 05/00 A2920 RMK AO2
Loading
Personal Weather Stations






























Interactive Weather Map New forecast layout! Learn more

10-Day Weather Forecast

Advertisements
Track Severe Weather on mobile